Tracking 18647 objects as of 28-May-2017
HD Live streaming from Space Station
objects crossing your sky now

SL-8 R/B

Track SL-8 R/B now!
10-day predictions


NORAD ID: 22308
Int'l Code: 1993-001B
Perigee: 970.2 km
Apogee: 1,002.5 km
Inclination: 82.9 °
Period: 104.7 minutes
Semi major axis: 7357 km
RCS: 5.4041 m2 (large)
Launch date: January 12, 1993
Source: Commonwealth of Independent States (former USSR) (CIS)
Launch site: PLESETSK MISSILE AND SPACE COMPLEX (PKMTR)

Note: This is a ROCKET BODY
Your satellite tracking list
Your tracking list is empty





NASA's NSSDC Master Catalog

Two Line Element Set (TLE):
1 22308U 93001B   17147.74896663 +.00000088 +00000-0 +75100-4 0  9990
2 22308 082.9345 183.4261 0021922 259.0033 221.0838 13.75695104223227
Source of the keplerian elements: AFSPC